When you browse on this site, cookies collect data to enhance your experience and personalize the content and advertising you see.
Visit our Privacy Policy to learn more. By continuing to use the site, you agree to this use of cookies and data.
  • In Hungary
  • List of Countries
  • For 7 days
  • Water Temperature
  • Weather Map
  • News
  • Weather Widgets
  • user-avatar
    Login

    Hourly Weather Naglady

    Today, 23 September, Monday

    Time Temperature Precipitation Wind Pressure Humidity
    00:00 +11°C° 0 mm 3 mps 751 mmHg 90%
    01:00 +11°C° 0 mm 4 mps 751 mmHg 86%
    02:00 +10°C° 0 mm 4 mps 751 mmHg 85%
    03:00 +8°C° 0 mm 4 mps 752 mmHg 83%
    04:00 +7°C° 0 mm 4 mps 752 mmHg 81%
    05:00 +7°C° 0 mm 4 mps 752 mmHg 80%
    06:00 +7°C° 0 mm 4 mps 752 mmHg 78%
    07:00 +7°C° 0 mm 4 mps 752 mmHg 76%
    08:00 +8°C° 0 mm 4 mps 753 mmHg 72%
    09:00 +10°C° 0 mm 4 mps 753 mmHg 67%
    10:00 +11°C° 0 mm 4 mps 753 mmHg 62%
    11:00 +12°C° 0 mm 4 mps 753 mmHg 59%
    12:00 +13°C° 0 mm 4 mps 753 mmHg 57%
    13:00 +14°C° 0 mm 4 mps 753 mmHg 54%
    14:00 +14°C° 0 mm 4 mps 752 mmHg 54%
    15:00 +13°C° 0 mm 4 mps 752 mmHg 54%
    16:00 +13°C° 0 mm 4 mps 752 mmHg 53%
    17:00 +12°C° 0 mm 3 mps 752 mmHg 57%
    18:00 +10°C° 0 mm 3 mps 752 mmHg 61%
    19:00 +8°C° 0 mm 3 mps 752 mmHg 64%
    20:00 +8°C° 0 mm 3 mps 752 mmHg 65%
    21:00 +7°C° 0 mm 3 mps 753 mmHg 65%
    22:00 +7°C° 0 mm 3 mps 753 mmHg 66%
    23:00 +7°C° 0 mm 3 mps 753 mmHg 68%

    Tomorrow, 24 September, Tuesday

    Time Temperature Precipitation Wind Pressure Humidity
    00:00 +5°C° 0 mm 3 mps 753 mmHg 70%
    01:00 +5°C° 0 mm 3 mps 752 mmHg 72%
    02:00 +5°C° 0 mm 2 mps 752 mmHg 74%
    03:00 +5°C° 0 mm 2 mps 752 mmHg 76%
    04:00 +5°C° 0 mm 2 mps 751 mmHg 78%
    05:00 +5°C° 0 mm 2 mps 751 mmHg 76%
    06:00 +6°C° 0 mm 2 mps 751 mmHg 74%
    07:00 +7°C° 0 mm 2 mps 751 mmHg 72%
    08:00 +9°C° 0 mm 2 mps 751 mmHg 67%
    09:00 +12°C° 0 mm 2 mps 751 mmHg 63%
    10:00 +14°C° 0 mm 2 mps 751 mmHg 58%
    11:00 +15°C° 0 mm 2 mps 751 mmHg 55%
    12:00 +16°C° 0 mm 2 mps 750 mmHg 52%
    13:00 +17°C° 0 mm 2 mps 750 mmHg 48%
    14:00 +17°C° 0 mm 2 mps 749 mmHg 50%
    15:00 +17°C° 0 mm 2 mps 749 mmHg 52%
    16:00 +17°C° 0 mm 2 mps 749 mmHg 54%
    17:00 +15°C° 0 mm 2 mps 749 mmHg 60%
    18:00 +13°C° 0 mm 2 mps 748 mmHg 66%
    19:00 +10°C° 0 mm 3 mps 748 mmHg 72%
    20:00 +10°C° 0 mm 3 mps 748 mmHg 73%
    21:00 +9°C° 0 mm 3 mps 748 mmHg 74%
    22:00 +9°C° 0 mm 3 mps 748 mmHg 75%
    23:00 +9°C° 0 mm 3 mps 748 mmHg 75%

    Day after tomorrow, 25 September, Wednesday

    Time Temperature Precipitation Wind Pressure Humidity
    00:00 +9°C° 0 mm 3 mps 748 mmHg 75%
    01:00 +9°C° 0 mm 3 mps 747 mmHg 75%
    02:00 +9°C° 0 mm 3 mps 747 mmHg 76%
    03:00 +9°C° 0 mm 3 mps 747 mmHg 76%
    04:00 +9°C° 0 mm 3 mps 747 mmHg 76%
    05:00 +10°C° 0 mm 3 mps 746 mmHg 76%
    06:00 +10°C° 0 mm 3 mps 746 mmHg 76%
    07:00 +10°C° 0 mm 4 mps 746 mmHg 76%
    08:00 +12°C° 0 mm 4 mps 746 mmHg 71%
    09:00 +13°C° 0 mm 4 mps 746 mmHg 67%
    10:00 +14°C° 0 mm 4 mps 746 mmHg 62%
    11:00 +15°C° 0 mm 4 mps 745 mmHg 62%
    12:00 +15°C° 0 mm 4 mps 745 mmHg 62%
    13:00 +16°C° 0 mm 3 mps 745 mmHg 63%
    14:00 +16°C° 0.2 mm 3 mps 744 mmHg 67%
    15:00 +14°C° 0.2 mm 3 mps 744 mmHg 72%
    16:00 +14°C° 0.2 mm 2 mps 744 mmHg 77%
    17:00 +14°C° 0.1 mm 2 mps 744 mmHg 78%
    18:00 +14°C° 0.1 mm 2 mps 744 mmHg 79%
    19:00 +14°C° 0.1 mm 2 mps 744 mmHg 81%
    20:00 +14°C° 0.1 mm 2 mps 744 mmHg 82%
    21:00 +13°C° 0.1 mm 2 mps 744 mmHg 83%
    22:00 +13°C° 0.1 mm 2 mps 744 mmHg 84%
    23:00 +13°C° 0 mm 2 mps 744 mmHg 85%

    26 September, Thursday

    Time Temperature Precipitation Wind Pressure Humidity
    00:00 +13°C° 0 mm 2 mps 744 mmHg 86%
    01:00 +13°C° 0 mm 1 mps 744 mmHg 87%
    02:00 +13°C° 0 mm 1 mps 744 mmHg 88%
    03:00 +12°C° 0 mm 1 mps 744 mmHg 90%
    04:00 +12°C° 0 mm 1 mps 744 mmHg 91%
    05:00 +12°C° 0 mm 1 mps 745 mmHg 91%
    06:00 +13°C° 0 mm 1 mps 745 mmHg 90%
    07:00 +13°C° 0 mm 1 mps 745 mmHg 90%
    08:00 +14°C° 0 mm 1 mps 745 mmHg 85%
    09:00 +16°C° 0 mm 1 mps 746 mmHg 80%
    10:00 +18°C° 0 mm 1 mps 746 mmHg 75%
    11:00 +19°C° 0.2 mm 1 mps 747 mmHg 73%
    12:00 +19°C° 0.2 mm 1 mps 747 mmHg 71%
    13:00 +19°C° 0.2 mm 2 mps 747 mmHg 68%
    14:00 +18°C° 0.4 mm 2 mps 747 mmHg 70%
    15:00 +18°C° 0.4 mm 2 mps 747 mmHg 71%
    16:00 +19°C° 0.4 mm 1 mps 747 mmHg 73%
    17:00 +16°C° 0.2 mm 1 mps 747 mmHg 79%
    18:00 +15°C° 0.2 mm 1 mps 748 mmHg 84%
    19:00 +14°C° 0.2 mm 1 mps 748 mmHg 90%
    20:00 +13°C° 0 mm 1 mps 748 mmHg 91%
    21:00 +13°C° 0 mm 1 mps 748 mmHg 92%
    22:00 +13°C° 0 mm 1 mps 749 mmHg 93%
    23:00 +13°C° 0 mm 1 mps 749 mmHg 93%

    27 September, Friday

    Time Temperature Precipitation Wind Pressure Humidity
    00:00 +13°C° 0 mm 1 mps 749 mmHg 93%
    01:00 +12°C° 0 mm 1 mps 749 mmHg 93%
    02:00 +12°C° 0 mm 1 mps 749 mmHg 93%
    03:00 +12°C° 0 mm 1 mps 749 mmHg 93%
    04:00 +12°C° 0 mm 1 mps 749 mmHg 93%
    05:00 +12°C° 0 mm 1 mps 749 mmHg 92%
    06:00 +13°C° 0 mm 2 mps 749 mmHg 90%
    07:00 +13°C° 0 mm 2 mps 749 mmHg 88%
    08:00 +15°C° 0 mm 2 mps 749 mmHg 82%
    09:00 +16°C° 0 mm 2 mps 749 mmHg 75%
    10:00 +18°C° 0 mm 2 mps 750 mmHg 69%
    11:00 +19°C° 0 mm 3 mps 749 mmHg 66%
    12:00 +19°C° 0 mm 3 mps 749 mmHg 64%
    13:00 +20°C° 0 mm 3 mps 749 mmHg 61%
    14:00 +20°C° 0.1 mm 3 mps 748 mmHg 64%
    15:00 +19°C° 0.1 mm 3 mps 748 mmHg 67%
    16:00 +19°C° 0.1 mm 3 mps 748 mmHg 71%
    17:00 +18°C° 0 mm 3 mps 748 mmHg 76%
    18:00 +17°C° 0 mm 2 mps 748 mmHg 81%
    19:00 +16°C° 0 mm 2 mps 748 mmHg 86%
    20:00 +16°C° 0 mm 3 mps 748 mmHg 85%
    21:00 +16°C° 0 mm 3 mps 748 mmHg 84%
    22:00 +16°C° 0 mm 3 mps 748 mmHg 84%
    23:00 +16°C° 0.1 mm 3 mps 747 mmHg 84%

    28 September, Saturday

    Time Temperature Precipitation Wind Pressure Humidity
    00:00 +14°C° 0.1 mm 3 mps 747 mmHg 84%
    01:00 +14°C° 0.1 mm 3 mps 747 mmHg 85%
    02:00 +14°C° 0.1 mm 3 mps 747 mmHg 86%
    03:00 +14°C° 0.1 mm 4 mps 746 mmHg 88%
    04:00 +13°C° 0.1 mm 4 mps 746 mmHg 90%
    05:00 +14°C° 0.6 mm 4 mps 746 mmHg 91%
    06:00 +14°C° 0.6 mm 4 mps 746 mmHg 92%
    07:00 +14°C° 0.6 mm 4 mps 746 mmHg 93%
    08:00 +15°C° 0.4 mm 4 mps 746 mmHg 91%
    09:00 +15°C° 0.4 mm 4 mps 746 mmHg 88%
    10:00 +16°C° 0.4 mm 5 mps 746 mmHg 85%
    11:00 +17°C° 0.4 mm 5 mps 746 mmHg 78%
    12:00 +19°C° 0.4 mm 5 mps 746 mmHg 71%
    13:00 +20°C° 0.4 mm 5 mps 745 mmHg 63%
    14:00 +19°C° 0 mm 5 mps 745 mmHg 62%
    15:00 +19°C° 0 mm 4 mps 745 mmHg 61%
    16:00 +19°C° 0 mm 3 mps 745 mmHg 60%
    17:00 +17°C° 0 mm 3 mps 745 mmHg 65%
    18:00 +16°C° 0 mm 3 mps 745 mmHg 69%
    19:00 +14°C° 0 mm 3 mps 745 mmHg 74%
    20:00 +13°C° 0 mm 3 mps 745 mmHg 74%
    21:00 +13°C° 0 mm 3 mps 745 mmHg 73%
    22:00 +13°C° 0 mm 3 mps 745 mmHg 73%
    23:00 +13°C° 0 mm 4 mps 744 mmHg 74%
    Show more